Wind_Speed
28 28 28 29 29 30 32 32 32 33 35 37 38 38 38 39 39 38 36 32 27 22 19 18 16 15 15 15 15 15 16 17 18 18 19 19 19 19 19 19 18 19 19 19 20 21 22 24 25 25 24 22 21 22 24 28 32 35 35 32 28 24 22 24 27 29 32 32 32 31 31 34 38 42 44 46 48 50 49 48 47 46 45 45 44 44
27 28 28 28 28 29 31 32 32 32 33 35 36 37 38 38 39 38 36 33 28 23 20 18 17 16 15 15 15 15 15 16 17 17 17 18 18 18 18 18 18 18 19 19 20 21 23 24 25 25 25 23 23 24 26 30 34 36 36 34 30 25 23 24 27 30 32 32 31 30 30 32 35 39 43 46 49 52 52 50 48 46 45 44 43 43
28 28 28 27 27 28 30 32 32 32 32 33 34 36 36 37 37 38 37 33 29 24 21 19 18 17 17 16 15 15 15 15 15 16 16 16 17 18 18 19 19 19 20 20 21 22 24 25 26 27 26 26 26 26 28 31 34 36 37 35 32 27 24 24 27 30 33 33 32 31 30 31 33 36 41 45 49 52 54 52 49 46 45 44 43 42
28 28 28 27 28 28 30 31 31 31 31 32 33 34 34 34 35 36 36 34 29 25 21 19 19 19 19 18 16 16 15 15 15 15 16 17 18 19 19 20 20 20 20 21 21 22 23 25 27 28 28 28 27 27 28 31 33 36 37 36 33 29 25 24 26 30 33 34 33 32 32 31 31 34 38 43 48 52 54 52 49 47 45 44 44 44
28 27 27 27 28 29 30 31 31 31 31 31 32 32 32 32 33 34 35 33 29 25 22 20 20 21 21 20 18 17 15 15 15 15 16 17 18 19 19 20 20 20 20 20 20 20 21 22 24 26 27 27 27 27 28 29 32 35 36 36 34 30 27 26 27 29 32 34 34 33 32 31 31 32 36 40 45 50 53 52 50 48 46 46 46 46
28 27 27 28 28 29 30 30 30 29 30 30 31 31 31 31 31 33 33 31 28 25 23 22 22 22 22 21 19 17 15 14 14 15 16 17 17 18 18 19 18 18 18 18 17 17 18 19 21 23 24 25 26 26 27 28 31 34 36 36 35 31 28 27 28 30 31 33 33 33 32 32 31 31 33 37 42 47 51 52 50 48 47 47 47 46
29 28 28 28 29 30 29 29 28 28 28 29 31 31 31 31 31 31 30 28 26 24 24 24 24 23 22 20 18 17 15 14 14 14 15 16 16 17 17 17 16 16 16 16 17 17 18 19 21 22 24 25 26 27 27 28 30 33 35 36 35 32 29 28 29 30 31 32 32 32 32 32 31 31 31 34 38 43 49 52 51 49 47 47 46 44
30 30 30 29 29 28 27 27 27 27 27 28 29 30 31 32 31 29 28 26 24 24 25 26 25 23 21 19 18 17 16 15 13 13 14 14 15 16 15 15 15 15 16 18 19 20 21 22 23 25 26 27 28 28 28 28 30 33 35 37 36 33 29 28 29 30 31 31 31 31 31 32 32 31 30 31 34 39 46 51 52 50 47 45 43 41
33 32 31 29 26 25 26 27 28 28 27 27 28 28 29 29 29 27 25 24 24 25 26 27 26 24 22 20 19 18 17 15 14 13 13 13 13 14 14 15 16 18 20 21 22 23 24 25 26 27 28 29 29 29 29 28 30 32 35 38 37 34 31 28 28 30 31 31 30 30 31 32 33 32 31 31 32 36 42 49 52 50 46 44 42 40
33 30 27 26 25 25 25 27 29 29 28 27 26 26 26 25 24 24 24 25 26 27 27 26 25 25 24 21 20 19 18 15 13 12 12 12 12 13 14 17 19 21 22 23 23 24 25 25 25 26 27 28 29 29 28 28 29 31 35 38 38 36 32 29 28 29 31 31 30 30 31 32 33 33 31 30 31 34 40 47 51 49 45 42 41 41
26 24 24 25 26 27 26 27 28 29 28 26 26 25 23 21 21 21 23 26 27 28 27 26 25 25 25 24 22 19 18 15 13 12 11 11 12 14 16 18 19 21 21 22 23 23 24 24 24 25 26 27 27 27 27 27 28 30 34 38 39 37 33 30 29 29 30 31 30 30 30 32 33 34 32 30 30 33 38 45 49 48 44 41 40 40
22 23 25 27 27 27 27 27 27 27 26 25 24 22 21 19 19 20 22 24 27 28 28 28 27 26 26 26 24 21 18 16 15 14 14 13 13 14 15 17 19 20 21 22 23 23 23 23 24 24 25 26 26 27 27 27 27 30 33 37 39 38 34 31 29 29 30 31 30 30 30 32 34 34 32 30 29 31 37 44 48 47 44 41 40 40
25 27 27 27 27 27 26 26 25 25 23 22 21 21 20 20 20 21 22 24 25 26 27 28 28 28 26 25 23 21 18 17 17 18 17 16 15 15 16 17 18 19 21 22 23 23 23 23 23 24 25 26 26 27 27 26 27 28 32 36 39 38 35 31 29 29 30 31 30 30 30 32 34 34 33 31 30 31 35 42 46 47 44 41 40 38
28 27 26 26 25 25 24 24 23 23 22 21 20 20 21 21 22 22 23 24 25 25 25 27 29 29 27 24 21 19 18 18 19 20 20 18 17 16 17 18 18 19 20 21 22 23 22 23 24 24 25 26 27 27 27 26 26 27 30 35 38 39 36 32 29 29 29 30 31 31 31 32 34 35 34 32 31 31 34 39 43 45 44 42 39 38
27 25 25 24 24 23 23 22 22 22 22 21 21 21 22 23 23 23 23 24 25 25 25 26 28 29 27 24 20 17 16 17 19 21 22 21 18 17 18 19 19 19 19 21 22 22 22 23 24 25 25 26 27 27 27 26 26 26 28 33 37 39 37 34 30 29 29 30 31 31 32 33 34 35 35 34 33 33 34 37 41 44 43 41 40 38
25 24 24 24 24 23 23 22 22 22 22 22 21 22 22 23 23 23 23 23 24 24 24 25 26 27 27 24 19 16 16 17 21 24 26 24 20 17 19 20 20 19 19 20 21 22 22 23 24 25 26 26 27 28 28 27 26 26 27 30 35 38 38 35 32 30 29 30 31 31 32 34 35 36 36 36 35 35 35 36 39 42 43 42 41 40
25 24 24 24 24 24 24 23 23 23 23 22 23 23 23 23 23 23 23 23 24 23 22 23 23 24 26 25 21 17 17 19 23 26 28 27 23 19 19 21 21 19 19 19 20 21 22 23 24 25 26 27 27 28 28 28 27 26 26 29 32 36 38 37 35 32 31 31 31 32 33 34 36 37 37 37 37 37 37 36 37 39 42 43 43 42
26 25 25 25 25 24 24 23 23 23 23 23 23 23 24 24 23 23 22 23 23 23 23 23 23 22 23 24 23 21 20 22 25 29 30 30 26 21 19 20 20 19 19 19 19 20 22 23 24 25 26 27 28 28 29 29 28 27 26 27 30 34 37 37 37 35 34 33 33 33 34 35 36 37 38 39 39 39 38 37 37 38 40 42 43 43
26 25 25 24 25 25 25 25 25 24 24 24 24 24 24 24 24 24 24 24 24 24 24 23 23 24 24 25 25 25 23 24 26 29 32 33 29 23 19 19 19 19 18 18 19 20 21 23 24 25 26 27 28 29 30 30 29 28 27 27 29 32 36 37 38 38 37 36 35 34 35 36 37 38 39 40 40 40 40 39 38 38 38 41 42 42
28 28 26 26 27 28 29 28 27 26 25 24 24 23 24 26 27 27 26 27 26 24 24 23 24 24 25 27 27 27 25 25 27 29 32 34 31 24 20 20 20 20 18 18 18 19 21 23 24 26 27 28 29 30 30 31 30 29 27 27 28 31 35 37 38 39 39 38 37 36 36 37 38 39 39 40 41 42 41 40 39 38 38 40 40 40
30 30 29 28 28 29 29 28 27 25 24 24 24 26 28 31 32 31 29 27 26 24 23 23 24 25 26 27 28 28 28 28 28 29 31 33 31 26 21 21 22 22 20 18 17 18 20 22 24 26 27 28 29 30 31 31 31 30 28 27 28 30 34 37 39 40 40 39 38 37 37 38 39 40 40 41 42 43 43 41 39 38 38 39 40 39
28 29 28 27 26 27 27 27 27 26 26 28 30 32 33 33 32 30 27 26 25 24 24 24 26 28 28 29 30 31 30 29 28 28 28 29 30 27 22 22 23 24 22 19 17 17 19 22 24 26 27 29 30 31 32 32 32 31 29 27 28 30 33 36 39 40 40 40 39 38 38 39 40 41 41 41 43 44 44 42 40 39 38 39 40 39
26 27 27 26 26 26 27 28 30 31 32 32 33 32 30 29 27 26 25 24 24 24 25 27 29 30 31 31 31 31 30 28 26 25 24 25 28 28 23 23 24 25 23 19 17 17 19 22 24 26 28 29 30 31 32 33 33 32 30 28 28 29 32 35 38 40 40 40 40 39 39 40 41 42 42 43 44 45 45 44 41 40 39 40 40 40
26 27 28 28 29 30 32 34 34 33 31 29 27 26 24 23 23 23 23 24 24 25 26 27 28 28 29 29 29 28 27 25 23 21 21 24 27 28 25 25 25 25 23 19 17 17 19 21 24 26 27 29 30 31 33 33 34 33 31 29 28 29 31 34 37 39 40 40 40 40 40 41 42 43 43 44 45 45 46 45 43 41 40 41 41 41
28 30 31 31 31 30 29 29 28 26 25 24 24 23 23 23 23 23 24 24 24 24 24 25 25 26 28 27 26 25 25 24 23 22 21 24 27 28 25 24 25 25 23 19 17 17 19 21 23 25 27 29 30 31 33 34 34 33 32 30 29 29 31 34 36 38 40 40 40 40 40 41 43 44 44 45 45 46 46 46 44 42 42 42 42 41
25 25 25 25 25 25 25 25 25 25 24 24 24 23 23 23 23 24 24 24 23 23 23 25 26 27 27 26 25 25 25 25 23 22 22 23 26 28 25 23 22 23 22 20 18 18 19 20 22 24 26 28 30 31 33 34 34 34 33 31 30 30 31 33 36 38 39 40 40 40 41 41 43 44 45 46 46 47 47 47 46 44 43 43 43 42
21 22 22 23 24 24 24 25 25 24 24 23 23 23 23 23 24 24 24 24 24 23 23 25 26 27 26 25 25 25 25 25 24 24 24 24 26 27 24 21 20 21 22 21 20 20 20 20 20 22 25 27 29 31 32 34 34 35 34 32 31 31 32 33 36 38 39 40 40 40 41 42 43 44 45 46 47 48 48 48 47 45 44 43 43 43
21 21 22 22 23 22 22 22 22 22 22 22 21 21 21 22 22 23 24 24 23 22 22 23 24 24 24 24 25 26 28 28 28 26 24 22 23 24 22 19 19 21 23 24 23 21 20 19 19 20 22 24 27 29 32 33 35 35 35 34 32 32 32 34 36 38 39 40 40 41 41 42 43 43 45 46 47 48 49 49 48 47 45 44 44 44
19 19 19 20 20 19 19 20 21 21 21 21 20 19 19 19 21 22 22 22 22 22 23 23 23 23 24 26 28 30 31 31 27 22 18 17 20 21 20 20 21 22 23 26 25 22 19 17 17 18 19 22 25 28 31 33 35 36 35 34 33 33 33 34 36 38 39 40 40 41 41 42 43 43 44 46 48 49 50 50 49 48 46 45 45 45
16 16 16 16 16 16 17 18 19 19 19 19 18 17 17 19 21 23 24 24 24 25 25 25 25 24 25 26 28 29 29 26 20 13 11 13 17 20 21 22 22 22 22 24 26 25 22 17 16 16 17 19 22 26 30 33 35 36 35 34 34 34 34 35 36 37 39 40 40 41 42 43 44 44 44 46 48 50 51 51 51 49 48 47 46 46
16 15 14 13 13 13 13 14 15 15 16 16 17 17 17 19 20 22 24 25 26 26 27 27 26 26 24 23 24 25 25 21 15 11 12 15 19 22 23 24 23 21 20 21 23 24 25 21 16 14 15 17 20 24 28 32 34 35 35 35 35 35 35 35 36 37 38 39 40 41 42 43 44 44 44 46 49 51 53 53 52 50 49 48 48 47
17 16 15 13 12 12 12 12 12 13 13 14 14 15 16 17 18 19 20 21 23 25 26 27 27 27 26 25 25 27 28 25 20 17 18 20 23 24 23 24 24 22 19 19 19 20 21 23 21 17 15 15 18 22 27 31 33 34 34 35 35 36 36 36 35 36 36 37 38 40 42 43 44 44 44 46 49 53 55 54 53 52 51 50 49 49
18 17 16 15 14 13 12 12 12 12 12 12 13 13 14 15 15 16 17 19 20 21 23 25 26 27 28 29 30 32 33 30 25 21 21 23 24 25 23 23 23 23 21 20 20 20 21 25 25 21 18 16 17 20 25 29 32 34 34 35 36 37 36 35 35 34 35 35 36 38 40 43 45 45 44 47 50 54 57 56 54 53 52 51 51 50
19 18 18 17 16 14 13 13 12 12 12 12 12 12 13 14 14 15 17 18 19 20 22 23 25 26 28 29 31 33 33 29 24 21 21 22 24 24 24 24 24 23 23 22 22 22 23 24 25 24 22 18 17 19 23 27 30 33 34 36 37 37 36 35 34 33 33 33 33 35 39 43 45 45 45 47 51 56 58 58 56 54 53 53 52 52
21 20 19 18 17 16 15 14 13 13 12 12 12 12 13 14 15 16 17 18 19 20 21 22 24 25 26 28 30 32 32 26 21 19 20 22 23 24 25 25 24 24 24 23 23 23 25 24 24 24 24 21 18 18 21 24 28 31 33 35 36 36 35 34 33 32 32 33 34 36 40 44 45 45 45 47 52 57 59 59 58 56 55 54 53 53
22 22 21 20 18 17 15 14 13 13 12 12 12 12 13 14 15 16 17 18 19 20 21 22 23 24 26 27 29 30 29 25 21 20 20 20 21 23 25 26 24 23 24 23 23 23 25 25 25 24 24 23 21 19 20 22 25 28 31 33 35 35 33 31 31 32 34 35 37 39 43 46 46 44 44 48 54 58 60 60 59 57 56 54 53 53
22 22 21 20 18 17 15 14 13 12 12 12 12 12 13 14 15 16 17 18 18 19 20 21 22 24 25 26 27 28 27 24 21 19 19 19 20 22 25 26 24 23 23 23 23 23 24 26 26 25 24 24 23 21 19 20 22 25 28 31 32 32 30 29 30 32 34 36 38 41 45 47 45 42 42 48 54 58 60 60 60 58 56 54 53 53
23 22 22 20 18 16 15 13 12 12 12 12 11 12 12 13 14 15 16 17 18 18 20 21 22 23 24 25 26 26 25 23 21 19 19 19 20 22 24 25 24 22 21 21 22 22 24 25 27 27 26 25 23 22 20 19 20 23 27 30 31 30 28 29 31 33 34 36 38 41 45 47 44 41 41 47 53 57 58 59 59 58 56 54 53 53
23 23 22 20 18 16 15 13 13 12 11 11 11 11 12 12 13 14 15 15 16 17 18 19 21 22 23 23 24 24 24 23 21 20 20 20 20 22 23 24 23 22 21 21 21 22 23 25 26 27 27 27 25 23 21 20 20 22 26 29 30 28 25 28 31 34 35 36 37 40 43 45 43 39 40 46 52 55 57 58 58 56 54 53 53 53
23 22 21 19 17 15 14 13 12 11 10 10 10 10 11 11 12 13 13 14 15 16 17 18 19 21 22 22 23 23 23 22 21 21 20 20 20 21 22 22 23 22 22 21 22 23 23 24 25 26 26 27 27 25 23 22 21 22 23 25 25 23 22 26 31 34 35 36 38 40 42 42 40 38 39 46 52 56 58 59 57 55 53 52 52 53
23 22 21 19 16 14 13 12 11 11 10 10 9 9 9 10 10 11 12 12 13 14 14 15 17 19 21 22 22 21 21 21 20 20 20 20 19 20 20 21 22 22 22 23 23 24 24 25 25 26 26 27 27 27 26 24 22 22 23 24 24 22 21 25 30 34 35 37 40 41 40 38 36 36 38 45 52 58 60 60 57 54 52 52 54 54
23 22 21 19 17 15 13 11 11 10 10 10 10 9 9 9 9 10 10 10 10 11 12 12 13 15 17 18 19 19 18 18 18 18 18 17 17 18 19 20 21 21 22 23 24 25 26 26 26 27 27 27 28 28 28 26 24 24 25 26 25 22 18 23 29 34 36 39 42 40 35 33 33 36 39 45 52 58 61 59 56 54 52 53 55 56
23 22 20 18 17 15 13 12 12 11 11 10 10 9 8 8 9 9 9 9 9 9 9 10 11 12 13 14 15 15 14 14 14 14 14 14 15 16 17 18 20 21 22 23 24 26 26 27 27 28 27 27 28 29 30 28 26 26 28 28 25 21 17 21 27 33 37 42 43 40 34 31 32 37 41 47 53 57 59 57 55 54 54 55 57 57
24 22 20 18 16 15 13 13 13 13 12 12 11 9 8 8 8 8 8 8 8 8 8 8 8 9 10 11 10 10 9 8 9 9 10 11 12 14 15 17 19 20 21 22 23 25 26 27 28 28 27 27 28 29 30 29 27 28 29 29 27 24 23 23 26 32 38 43 44 40 33 31 32 37 44 49 54 57 58 57 56 55 56 57 58 58
24 22 20 18 17 16 16 15 15 14 14 13 12 11 9 8 8 8 9 9 8 8 7 7 8 9 10 10 9 8 6 5 5 6 8 9 11 13 14 16 18 19 21 22 24 25 26 27 28 28 27 27 28 29 29 29 28 29 31 31 29 28 28 24 26 32 39 44 45 41 33 32 34 40 48 53 56 58 58 58 57 56 56 57 58 58
26 24 21 19 18 17 17 16 15 15 15 14 13 12 10 9 9 9 9 10 10 10 9 9 10 12 13 12 12 10 8 6 4 4 5 7 9 11 12 14 16 18 20 22 24 26 27 28 29 28 27 27 28 28 28 28 28 30 32 31 29 28 27 25 26 32 39 45 46 41 33 32 37 44 48 52 56 58 57 57 57 57 57 58 58 57
29 26 24 21 19 17 17 16 16 16 16 15 14 13 12 11 11 11 11 11 11 12 12 11 12 12 13 13 13 12 11 9 7 4 3 4 6 7 9 11 14 17 20 23 25 27 28 28 28 27 27 28 29 28 27 26 27 30 32 31 28 27 27 28 30 34 41 46 46 41 32 33 40 47 50 52 54 54 54 54 56 57 58 58 58 56
31 29 26 23 20 18 17 17 17 18 17 17 15 14 13 13 13 14 14 13 14 14 14 14 14 14 14 13 13 12 12 12 11 10 8 5 4 5 6 8 11 14 18 22 25 27 28 27 26 25 26 28 29 28 26 25 27 29 31 29 26 26 28 31 33 37 42 45 45 40 34 36 42 48 51 50 50 51 52 52 53 56 57 57 57 56
33 31 29 26 22 20 18 18 18 18 18 18 17 15 14 14 14 15 16 15 16 16 16 17 17 16 16 15 14 13 13 14 14 14 13 11 9 7 5 5 7 9 12 16 20 24 26 25 24 22 21 22 24 25 24 23 25 27 28 26 25 26 28 31 35 38 41 43 41 37 35 39 44 49 52 50 49 49 50 50 52 54 55 56 56 55
34 33 32 29 26 22 20 18 18 19 19 19 18 17 16 15 15 16 16 16 16 17 18 18 18 18 17 17 16 15 15 16 16 16 16 15 13 11 8 6 4 3 3 7 13 18 21 22 20 16 12 12 14 18 20 22 24 25 24 24 25 27 30 33 37 40 42 42 39 34 35 40 45 49 51 50 49 49 50 51 51 52 54 54 54 54
35 35 34 32 29 26 22 20 19 19 20 20 19 18 18 17 17 17 17 17 18 18 18 18 18 19 19 18 18 17 17 17 17 18 18 17 16 14 12 11 11 11 8 4 5 10 14 17 16 11 5 4 8 13 18 22 24 25 26 26 28 30 33 36 39 43 43 42 37 33 35 42 46 49 52 51 50 49 49 51 52 51 53 53 53 53
Wind_Direction
294 295 297 299 300 301 304 308 308 308 308 310 313 315 319 322 324 326 328 327 323 315 304 297 292 286 280 275 274 276 277 277 278 276 273 272 271 269 267 265 263 261 259 256 254 251 246 243 241 241 242 246 246 244 241 238 235 232 231 230 230 231 230 229 229 227 224 220 218 217 215 213 215 218 222 224 221 216 211 209 208 208 211 215 218 218
296 296 297 298 300 301 303 306 307 305 305 306 309 312 316 319 322 324 325 325 322 316 308 301 297 294 289 283 279 279 280 280 278 275 272 270 269 269 268 266 265 262 260 258 253 248 244 241 240 241 243 245 244 242 239 236 232 230 229 229 229 230 229 228 227 225 224 221 220 220 219 215 214 216 219 222 220 216 212 209 207 208 211 215 218 218
297 297 297 299 299 300 301 303 304 304 303 304 306 310 314 317 319 320 322 322 320 315 308 305 303 302 299 292 288 287 286 284 279 274 270 267 267 267 266 265 263 261 258 255 251 246 242 239 238 238 240 240 240 240 238 235 232 230 229 229 229 229 228 225 224 224 224 222 221 220 219 216 213 213 216 219 219 216 212 209 207 208 212 215 217 217
296 296 296 298 299 299 299 301 301 301 301 303 305 309 312 314 315 317 318 319 317 313 309 307 308 308 305 300 297 295 293 288 281 274 268 265 264 263 261 260 259 258 256 254 251 247 243 239 237 237 238 238 239 239 239 236 234 232 230 229 229 229 228 224 223 223 223 222 221 219 218 216 213 211 213 215 216 215 212 209 208 209 212 214 214 214
293 293 294 297 298 298 298 299 299 300 301 303 305 309 311 311 312 313 315 316 315 313 310 310 310 309 307 304 302 299 295 289 282 274 268 264 261 259 258 258 258 258 257 256 254 251 248 244 242 240 240 241 242 242 241 239 236 233 231 229 229 229 228 224 223 223 223 223 221 220 218 216 213 210 209 211 213 213 211 209 208 210 212 213 213 213
291 292 293 295 296 296 296 297 297 299 301 304 306 308 309 309 309 310 312 314 314 313 311 310 310 309 307 305 303 301 296 289 281 274 267 263 261 259 257 257 257 258 259 259 259 257 254 251 248 245 244 244 244 243 241 240 237 234 231 229 228 228 227 225 223 223 224 223 222 220 219 217 215 211 208 208 209 210 210 209 209 209 211 212 214 215
290 291 292 293 293 293 294 294 296 299 302 305 307 308 308 308 307 308 310 312 312 311 310 309 309 308 306 305 304 303 299 291 281 271 265 261 259 257 255 254 255 259 262 262 260 256 252 248 245 243 241 240 239 238 238 237 236 233 230 228 227 227 226 224 223 223 223 222 221 220 219 218 217 214 210 208 208 209 209 208 208 208 209 212 214 216
289 291 291 292 292 292 293 294 297 299 302 304 306 306 306 307 307 307 308 309 309 308 309 310 310 309 307 306 307 307 305 298 287 274 265 259 256 254 252 252 254 257 258 255 250 245 242 239 237 236 235 234 233 233 234 235 234 232 229 226 225 226 226 224 222 222 221 221 220 219 219 219 218 216 214 211 209 209 209 208 207 206 207 211 214 215
288 289 290 290 290 293 295 297 298 300 302 303 303 303 304 305 306 307 307 307 306 307 309 311 312 311 309 308 309 310 309 304 295 284 272 263 258 255 256 256 255 252 249 245 242 239 238 236 235 234 233 232 232 232 233 234 234 232 228 225 224 225 226 224 221 220 220 219 218 218 218 218 218 218 217 214 212 211 210 207 205 205 206 209 213 215
287 287 288 290 292 294 296 297 298 300 301 301 300 300 301 302 303 305 305 305 306 308 311 312 313 312 311 310 311 312 311 305 297 287 278 271 266 263 262 259 255 251 247 245 243 241 239 238 237 236 234 233 232 232 233 235 236 234 229 225 223 224 226 225 222 220 219 218 218 218 218 217 218 218 218 216 214 212 210 206 205 205 206 209 212 215
286 289 292 295 296 296 295 295 297 299 300 300 300 299 298 298 299 301 303 304 307 309 312 313 312 311 310 311 313 315 314 309 300 291 283 277 272 267 264 260 258 255 252 249 246 243 241 240 239 238 236 234 233 233 233 235 237 235 230 225 223 224 227 227 224 221 219 219 219 219 219 218 218 218 219 217 215 213 210 206 204 205 207 209 211 214
290 294 297 297 296 296 295 295 296 298 300 300 300 299 298 296 296 298 300 302 305 308 311 311 311 310 309 311 314 317 317 316 312 308 300 290 282 276 272 267 263 259 255 251 247 244 242 240 239 237 236 234 233 233 233 235 237 235 231 226 224 225 228 228 226 223 221 220 220 220 220 220 219 219 219 218 216 213 210 206 204 205 206 207 209 212
297 298 297 295 294 293 294 295 297 298 299 299 298 297 296 296 297 297 298 300 303 305 308 309 309 309 310 311 314 318 320 319 317 314 307 300 295 292 288 280 270 262 257 252 248 244 241 239 238 236 235 233 232 232 233 234 236 236 232 227 225 225 228 229 227 224 222 221 221 221 221 220 220 219 219 218 217 214 211 207 205 204 205 206 207 210
298 297 294 292 291 291 292 294 295 296 295 295 294 294 294 296 297 298 300 300 301 303 305 306 307 308 309 311 315 319 321 317 312 308 303 300 300 300 297 289 278 267 260 254 248 244 241 239 237 235 233 232 231 231 232 234 236 236 233 229 226 226 228 229 228 225 223 223 222 222 222 220 219 219 218 218 217 215 212 208 206 204 204 204 206 209
294 293 291 290 289 289 290 292 292 292 292 292 293 293 294 294 296 298 300 300 301 303 305 306 307 307 307 310 314 318 318 311 306 302 301 299 299 301 301 295 284 272 263 256 250 245 241 239 237 235 232 231 230 231 232 233 236 237 235 232 229 228 229 230 229 227 225 224 225 225 223 221 219 218 218 219 218 216 213 211 208 207 206 205 206 208
290 289 288 287 287 288 289 289 289 289 290 291 291 291 292 293 295 297 298 299 300 303 304 305 306 306 306 308 311 313 313 308 305 305 305 301 299 301 305 301 292 277 264 257 252 246 242 239 237 234 232 230 230 230 231 233 235 237 237 234 232 231 230 230 230 228 227 227 227 227 225 222 219 217 216 218 218 216 214 212 211 210 208 206 206 208
288 287 287 286 286 287 287 288 288 288 288 288 288 289 289 291 293 295 296 297 299 300 301 302 302 303 304 306 307 308 310 310 309 308 307 304 302 303 307 305 298 284 269 259 252 247 243 239 236 233 231 230 229 229 230 231 234 236 238 236 234 233 232 231 231 230 229 229 228 228 226 223 218 215 215 216 217 215 213 213 212 212 210 208 207 207
289 288 287 286 285 285 286 286 285 285 286 287 288 290 291 292 292 293 293 294 295 295 296 297 296 295 297 299 302 306 310 311 310 309 308 305 304 305 308 306 300 288 274 262 254 248 244 240 236 233 230 229 228 228 228 230 233 235 237 237 235 234 232 232 231 231 231 230 230 229 227 224 218 214 213 214 215 214 213 212 213 213 212 210 208 206
289 287 286 284 283 284 285 284 284 285 286 287 289 291 293 292 292 292 291 291 291 290 291 291 290 290 290 291 297 303 308 309 308 307 306 306 305 307 309 308 302 292 279 265 255 249 246 242 238 234 231 229 227 227 227 229 231 234 237 237 236 234 232 231 231 231 231 231 230 229 227 224 219 214 211 212 213 213 212 211 212 213 213 211 209 207
285 283 282 282 284 286 287 288 288 288 288 289 290 290 290 291 292 291 290 290 289 288 288 286 285 286 288 291 296 301 304 305 304 304 305 305 306 307 310 310 306 298 284 269 257 251 249 245 240 235 231 229 227 227 227 229 231 234 236 237 235 233 231 230 230 230 230 231 230 229 227 224 220 216 211 210 211 212 211 211 211 212 213 212 210 208
282 282 284 286 289 289 287 288 289 289 289 289 289 288 288 290 290 290 289 289 288 286 285 283 283 285 287 290 293 297 300 301 301 302 304 305 305 305 307 309 307 301 290 275 262 255 252 248 242 236 231 229 227 227 227 229 231 233 236 236 235 232 230 228 228 229 229 230 230 229 227 224 221 217 212 210 210 211 211 211 210 211 211 211 210 208
285 287 290 293 293 290 288 289 289 289 287 287 286 286 287 288 288 287 289 289 287 285 285 283 285 288 289 290 292 296 298 299 300 302 303 302 302 303 304 307 306 301 293 281 269 259 255 250 244 237 232 229 227 227 227 229 231 233 235 236 235 232 229 227 227 227 228 229 229 228 226 224 221 217 213 210 210 211 211 211 210 210 210 209 208 206
290 292 294 294 292 289 288 288 287 287 286 286 286 286 287 288 288 289 291 291 291 290 290 291 293 294 294 293 294 296 297 300 301 302 299 295 295 299 303 305 304 300 294 287 277 266 257 250 244 239 234 230 227 227 227 229 230 232 235 236 235 233 229 226 226 226 227 227 228 228 226 223 220 217 213 211 211 211 212 211 210 209 208 207 206 206
288 286 285 285 284 284 284 284 285 286 288 289 289 290 292 295 296 297 298 298 297 296 295 295 294 293 291 291 292 294 295 297 298 296 293 290 292 297 301 304 303 300 296 291 284 274 262 251 244 240 236 231 228 227 228 229 230 232 234 236 236 234 230 226 225 225 225 226 227 227 226 223 219 216 213 211 211 212 212 211 210 208 207 206 206 205
285 282 281 282 283 284 285 286 287 289 290 290 291 293 296 297 297 296 294 293 291 290 290 289 287 285 285 287 288 289 290 291 291 291 290 290 293 296 299 301 301 300 298 293 287 279 269 256 246 240 236 233 230 228 228 229 230 232 234 236 238 236 232 227 225 224 224 225 227 227 225 222 219 215 212 211 212 213 212 211 209 208 206 206 205 205
292 290 288 287 286 285 284 283 283 282 281 281 281 284 286 287 286 284 283 282 281 281 282 282 282 282 284 286 287 287 287 288 289 290 290 290 292 294 297 300 301 301 299 294 288 284 277 263 249 240 236 233 231 230 229 229 230 232 234 237 239 238 234 229 225 224 224 225 226 226 225 222 218 214 211 210 211 213 212 211 209 207 206 205 205 206
295 290 287 285 283 282 281 280 278 277 276 275 274 273 274 275 276 276 275 275 276 277 278 279 280 281 283 284 284 284 285 286 287 289 291 291 291 291 295 300 304 303 299 295 291 288 283 271 255 242 236 233 231 230 229 229 230 232 234 238 240 239 235 229 225 224 224 224 225 225 223 221 217 214 211 209 211 212 212 211 208 207 205 205 206 207
297 293 289 287 286 285 285 283 281 279 276 273 271 269 268 269 270 272 273 273 273 273 273 273 275 279 282 283 283 283 284 285 287 291 295 294 289 288 294 299 301 300 299 297 295 291 285 275 261 248 240 235 232 230 230 230 230 232 235 238 240 238 234 229 225 224 223 224 224 224 222 219 216 213 210 209 210 212 212 210 208 206 205 205 206 208
303 298 295 292 290 289 287 285 282 280 278 276 273 270 267 264 264 266 267 268 268 268 268 269 271 275 278 281 283 285 285 286 290 297 302 294 286 285 291 293 294 296 299 301 300 293 283 272 262 253 245 238 234 231 230 230 231 233 236 238 239 236 232 228 225 223 223 224 223 222 220 218 215 212 209 208 209 211 212 210 208 206 205 205 206 208
313 307 302 297 293 290 287 285 284 283 283 281 279 274 268 261 258 258 259 260 262 264 266 268 269 272 276 281 284 286 286 287 292 299 295 282 278 280 284 286 288 292 299 305 306 301 289 273 261 254 249 241 235 232 230 231 232 234 237 238 237 234 230 227 224 224 224 224 223 221 219 216 213 211 209 208 209 210 211 209 207 205 205 205 206 208
327 322 317 311 304 298 293 291 289 287 286 284 281 277 272 267 263 261 260 260 261 263 264 267 268 270 272 276 279 280 280 282 282 280 276 273 274 277 282 285 288 291 297 304 307 305 299 285 267 251 248 243 238 233 231 231 233 235 236 237 235 232 229 226 225 225 225 224 223 221 218 215 212 210 209 208 209 210 210 208 206 204 204 205 206 208
336 334 331 328 323 317 311 306 301 297 292 288 285 281 279 277 274 272 270 267 265 265 265 266 267 268 269 269 269 270 273 275 275 275 278 278 280 282 284 288 290 292 295 300 301 299 297 291 277 258 248 244 239 235 232 232 233 234 234 233 232 230 227 226 226 226 226 224 222 219 216 213 211 210 209 209 209 209 209 207 205 203 204 204 206 207
340 339 338 338 335 332 327 322 317 311 305 298 293 289 286 283 281 279 276 273 271 269 267 267 268 268 269 269 269 270 273 275 278 281 283 284 284 285 287 289 292 294 295 297 297 295 291 289 283 273 261 250 241 235 232 232 233 233 233 232 231 230 228 227 227 227 225 223 221 218 215 213 211 211 210 210 209 208 208 206 204 203 203 204 205 206
343 343 343 342 340 338 334 329 325 320 315 309 302 297 292 288 284 281 278 276 274 272 270 269 269 269 270 271 272 273 276 278 281 286 288 287 286 287 289 290 291 293 295 296 296 296 293 289 287 285 280 264 247 235 231 231 231 232 232 232 231 231 230 229 228 225 222 221 220 219 216 213 212 212 212 210 208 207 207 205 204 203 203 203 204 205
346 346 346 345 343 341 338 334 329 325 320 314 307 300 294 289 285 282 279 277 276 275 274 272 271 271 271 271 272 275 278 281 286 289 290 288 287 288 288 288 288 290 292 293 293 294 293 291 290 291 290 280 261 240 231 229 230 231 231 231 231 231 231 229 227 223 219 219 220 220 216 213 212 213 214 211 207 205 205 205 204 203 203 203 204 204
347 347 347 346 345 344 341 338 333 327 320 313 305 298 292 287 284 282 280 278 277 276 275 274 274 273 273 273 273 276 280 286 290 290 289 287 287 286 285 284 284 286 287 288 290 291 293 293 291 289 290 287 275 255 237 231 230 230 230 230 230 230 230 229 226 223 219 219 219 218 214 211 212 215 216 210 206 204 204 204 204 203 203 203 204 205
346 346 346 347 346 345 343 339 335 329 322 314 305 296 290 286 283 281 280 279 277 276 275 275 275 275 275 276 276 279 282 287 289 288 286 285 284 283 281 280 281 282 282 284 286 290 293 293 292 289 286 284 280 271 256 240 232 229 228 227 227 227 227 228 228 225 222 221 220 218 214 211 213 217 217 210 206 204 204 203 203 204 203 203 204 206
346 345 345 346 347 346 344 342 337 331 324 316 308 299 291 286 282 280 279 277 276 275 274 275 275 276 276 277 279 281 284 286 287 286 284 282 280 278 276 277 277 278 279 281 285 288 289 289 289 288 285 281 279 276 271 258 242 230 224 222 222 223 225 227 228 227 225 224 222 219 215 213 215 218 217 210 206 204 204 203 203 203 203 204 206 207
346 345 345 346 347 347 346 344 340 334 325 317 308 301 295 290 285 281 278 276 275 274 274 274 274 275 276 277 278 280 282 284 285 285 282 279 275 273 272 273 274 275 277 280 282 283 284 284 283 283 283 282 281 278 273 265 252 237 226 221 220 222 225 227 228 227 226 224 221 218 215 215 218 219 216 209 206 204 204 203 202 202 202 204 206 208
346 345 345 346 347 347 347 345 342 337 330 322 314 307 299 291 284 280 277 275 274 274 274 274 274 274 275 275 276 278 279 281 281 280 278 274 271 269 269 269 271 274 276 277 278 279 279 279 279 279 279 280 281 279 274 266 255 243 231 224 221 222 227 230 229 227 225 221 217 215 215 217 219 219 214 208 205 204 202 201 201 200 201 203 204 205
347 346 347 348 348 348 348 347 346 344 340 333 326 316 307 298 291 283 275 272 270 269 270 271 273 272 271 273 276 277 278 278 277 274 272 270 268 267 267 268 270 272 275 275 276 276 275 277 277 277 277 278 278 277 274 268 257 245 235 227 222 221 226 229 229 227 223 218 214 213 215 219 221 220 214 209 205 202 201 200 199 198 199 201 202 202
348 348 349 350 350 350 351 353 353 352 348 342 337 331 323 314 306 299 290 282 276 273 273 275 277 278 276 276 276 276 276 274 272 270 268 267 266 266 267 269 270 271 272 272 272 273 273 274 276 276 277 277 278 278 275 268 258 246 238 231 227 225 229 227 225 224 221 216 213 213 218 221 223 220 214 208 204 201 200 198 197 197 197 199 201 201
352 351 352 352 352 353 354 357 358 358 355 352 348 343 334 325 319 314 308 302 295 292 289 288 288 288 287 283 279 276 273 270 267 266 266 266 266 266 266 266 267 267 267 267 268 270 271 273 274 274 275 276 277 277 275 268 257 245 237 232 228 228 236 226 221 220 220 217 215 215 219 221 220 215 210 204 200 198 197 196 195 195 197 198 199 200
356 355 354 353 353 355 357 360 2 3 2 1 359 354 344 336 330 327 326 324 320 316 312 307 302 299 300 297 293 287 279 271 265 262 262 261 261 261 260 260 259 260 260 261 264 267 270 272 273 274 275 275 275 274 271 266 256 244 235 229 223 219 220 220 219 219 219 218 217 216 218 218 215 209 202 197 194 194 194 194 194 195 196 198 199 199
360 358 356 355 355 357 0 3 5 5 5 5 4 0 355 348 344 343 344 343 341 340 341 337 332 329 327 329 328 322 311 296 273 256 253 252 253 254 254 254 253 254 255 258 262 265 268 271 272 274 274 273 271 269 266 261 253 242 232 226 221 216 212 214 218 219 219 218 217 216 217 213 208 202 197 194 193 192 192 193 193 194 195 197 198 197
4 2 359 357 358 0 3 4 5 6 8 8 8 6 3 360 358 358 357 355 354 355 358 358 351 345 342 344 346 345 340 333 311 268 249 246 247 249 250 251 251 251 253 257 262 265 267 269 271 271 270 268 266 263 260 255 248 238 229 224 219 214 208 209 215 219 219 218 217 216 216 210 204 199 195 193 192 192 192 192 192 193 194 196 196 196
7 5 2 359 358 359 2 4 6 7 7 8 9 10 8 7 7 7 7 6 5 4 4 4 359 355 353 355 356 356 353 353 351 337 293 265 255 251 251 250 250 250 251 254 259 263 266 266 265 263 262 263 262 260 255 248 240 233 227 222 216 208 202 205 211 217 219 218 217 217 215 209 202 198 196 193 192 191 190 191 192 193 194 194 194 193
9 7 4 1 359 358 0 4 7 7 6 7 9 11 12 13 12 11 10 11 12 9 6 5 4 3 3 6 7 5 2 360 1 2 355 343 319 289 267 253 246 244 245 249 254 258 260 258 255 254 256 258 260 258 252 241 232 227 224 219 211 202 198 202 209 214 217 217 217 217 214 206 200 196 194 192 190 189 189 189 191 193 194 193 193 192
11 9 7 4 1 359 359 3 5 7 6 5 6 8 12 15 15 13 12 13 13 12 10 9 8 6 5 8 10 9 7 7 8 9 9 5 358 342 315 281 255 243 239 242 246 250 251 251 251 252 255 258 258 256 249 236 227 222 220 214 205 199 200 204 209 213 216 216 216 215 211 203 198 194 192 189 188 187 187 188 190 192 193 193 192 191
12 12 10 8 4 1 0 1 3 5 5 4 4 5 9 13 16 16 15 15 15 14 13 13 11 8 6 6 8 9 8 8 10 13 16 15 11 5 358 348 339 318 268 244 241 243 248 251 253 253 255 256 255 251 244 235 228 224 222 214 203 198 201 205 209 213 215 215 214 210 203 198 195 192 190 187 185 185 185 186 188 190 192 192 192 191
12 12 12 11 8 5 3 2 2 3 3 3 4 5 7 11 14 16 16 16 15 15 15 16 15 12 7 5 6 8 9 10 12 15 19 20 19 17 16 18 20 18 12 342 262 248 250 251 250 247 233 222 229 232 230 228 225 223 221 215 206 200 202 205 209 212 214 214 212 205 196 192 190 189 188 185 182 181 182 183 185 187 190 191 191 191
Height
1380 1378 1376 1375 1374 1372 1369 1368 1368 1367 1365 1363 1362 1361 1360 1359 1358 1357 1356 1355 1354 1353 1352 1351 1351 1350 1349 1349 1350 1350 1349 1349 1349 1349 1348 1348 1349 1349 1349 1350 1350 1350 1351 1352 1352 1353 1353 1353 1354 1354 1354 1355 1355 1356 1357 1357 1358 1359 1361 1362 1363 1365 1365 1366 1367 1368 1370 1371 1373 1375 1377 1379 1381 1383 1385 1387 1389 1392 1395 1398 1400 1402 1405 1407 1409 1411
1378 1377 1375 1373 1372 1371 1368 1367 1367 1366 1364 1362 1361 1360 1358 1357 1356 1355 1354 1353 1353 1352 1351 1349 1348 1348 1348 1347 1347 1347 1347 1347 1347 1346 1346 1346 1347 1347 1347 1347 1348 1348 1348 1349 1349 1350 1350 1351 1351 1352 1352 1353 1353 1354 1354 1355 1356 1358 1359 1360 1362 1363 1363 1364 1365 1366 1368 1369 1371 1373 1375 1376 1378 1380 1383 1384 1387 1389 1392 1395 1398 1400 1403 1405 1407 1409
1377 1375 1373 1372 1371 1369 1368 1366 1365 1364 1363 1362 1360 1359 1358 1356 1355 1353 1352 1351 1350 1350 1349 1348 1347 1346 1345 1345 1345 1345 1345 1345 1344 1344 1344 1344 1344 1344 1345 1345 1345 1345 1346 1346 1347 1347 1348 1348 1349 1349 1350 1350 1351 1352 1353 1354 1355 1356 1357 1358 1360 1361 1362 1362 1363 1364 1366 1367 1368 1370 1372 1374 1376 1378 1380 1382 1384 1387 1390 1393 1395 1398 1401 1403 1405 1408
1376 1374 1372 1370 1369 1368 1366 1365 1363 1363 1362 1360 1359 1358 1357 1355 1353 1352 1351 1350 1348 1348 1347 1346 1345 1344 1343 1343 1343 1343 1343 1343 1342 1342 1342 1342 1342 1342 1342 1342 1342 1343 1343 1343 1344 1345 1345 1346 1347 1348 1348 1349 1349 1350 1351 1352 1353 1354 1355 1356 1358 1359 1360 1360 1361 1362 1363 1365 1366 1368 1370 1372 1373 1375 1378 1380 1383 1385 1388 1390 1393 1396 1399 1401 1403 1406
1375 1373 1371 1369 1368 1366 1365 1364 1363 1361 1360 1359 1358 1356 1355 1354 1352 1351 1349 1348 1347 1346 1345 1344 1343 1343 1342 1341 1341 1341 1341 1340 1340 1340 1339 1339 1339 1339 1339 1339 1340 1340 1341 1341 1342 1343 1344 1344 1345 1346 1347 1347 1348 1348 1349 1350 1351 1352 1353 1354 1356 1357 1358 1358 1359 1360 1362 1363 1364 1366 1368 1369 1371 1373 1376 1378 1380 1383 1386 1388 1391 1394 1397 1399 1402 1404
1373 1372 1370 1369 1367 1365 1363 1362 1361 1360 1358 1357 1356 1355 1353 1352 1351 1349 1348 1347 1345 1344 1343 1342 1341 1341 1340 1339 1339 1338 1338 1338 1338 1337 1337 1337 1337 1337 1337 1337 1338 1338 1339 1339 1340 1341 1342 1343 1343 1344 1345 1345 1346 1346 1347 1348 1349 1350 1351 1353 1354 1355 1356 1357 1358 1358 1360 1361 1363 1364 1366 1368 1369 1371 1374 1376 1378 1381 1383 1386 1388 1392 1395 1397 1399 1402
1371 1370 1369 1367 1365 1363 1362 1361 1359 1358 1358 1356 1354 1353 1352 1350 1349 1348 1347 1345 1344 1343 1341 1340 1339 1339 1338 1338 1337 1337 1336 1336 1335 1335 1335 1335 1335 1335 1335 1335 1336 1336 1337 1338 1338 1338 1339 1340 1340 1341 1341 1342 1343 1343 1344 1345 1346 1348 1349 1351 1352 1354 1355 1355 1356 1357 1358 1359 1361 1363 1364 1366 1367 1369 1372 1374 1376 1379 1381 1383 1386 1389 1392 1395 1397 1399
1369 1368 1367 1366 1364 1362 1360 1359 1358 1358 1357 1355 1353 1351 1349 1348 1347 1346 1345 1344 1343 1342 1340 1338 1337 1337 1336 1335 1335 1334 1333 1333 1333 1332 1332 1332 1333 1333 1333 1333 1333 1334 1334 1334 1334 1334 1335 1335 1336 1337 1338 1339 1340 1341 1342 1343 1344 1346 1347 1348 1350 1352 1353 1354 1354 1355 1356 1358 1359 1361 1362 1364 1366 1368 1370 1372 1374 1376 1379 1382 1384 1386 1389 1393 1395 1397
1367 1366 1364 1364 1363 1361 1359 1357 1356 1356 1355 1354 1353 1350 1348 1347 1345 1344 1343 1342 1341 1340 1339 1337 1335 1334 1333 1333 1333 1332 1332 1331 1330 1330 1330 1330 1330 1330 1331 1331 1331 1331 1330 1330 1330 1331 1332 1332 1333 1334 1335 1337 1338 1339 1340 1341 1342 1343 1345 1347 1348 1349 1351 1352 1353 1353 1355 1356 1357 1359 1361 1362 1364 1366 1368 1370 1372 1374 1377 1379 1382 1384 1387 1390 1393 1395
1366 1364 1363 1362 1361 1360 1358 1356 1354 1354 1354 1353 1351 1350 1348 1347 1344 1343 1341 1340 1339 1338 1338 1336 1334 1332 1331 1331 1330 1330 1330 1329 1328 1328 1328 1328 1328 1328 1328 1328 1328 1327 1327 1328 1328 1329 1329 1330 1331 1332 1333 1335 1336 1337 1338 1339 1340 1342 1343 1345 1346 1348 1349 1350 1351 1352 1353 1354 1356 1357 1359 1360 1362 1364 1366 1368 1370 1372 1374 1377 1380 1382 1384 1387 1390 1393
1364 1363 1362 1360 1359 1358 1357 1355 1353 1352 1352 1351 1349 1348 1348 1346 1345 1343 1340 1338 1337 1336 1335 1334 1333 1332 1330 1328 1328 1328 1328 1327 1326 1326 1326 1326 1326 1326 1326 1325 1325 1325 1325 1326 1326 1327 1327 1328 1329 1330 1331 1333 1334 1335 1336 1338 1338 1340 1341 1343 1344 1346 1347 1348 1349 1350 1351 1353 1354 1356 1357 1359 1361 1363 1364 1366 1368 1370 1373 1375 1378 1380 1383 1385 1388 1391
1363 1362 1360 1359 1357 1356 1355 1353 1352 1351 1350 1349 1348 1347 1346 1345 1344 1343 1341 1338 1336 1334 1333 1332 1331 1330 1329 1328 1327 1326 1326 1325 1324 1323 1323 1324 1324 1324 1323 1323 1323 1323 1323 1323 1323 1324 1325 1326 1327 1328 1329 1330 1332 1333 1334 1335 1337 1338 1339 1341 1342 1344 1345 1346 1347 1348 1350 1351 1353 1354 1356 1357 1359 1361 1363 1364 1366 1368 1370 1373 1376 1379 1381 1384 1386 1389
1361 1360 1359 1357 1356 1354 1353 1352 1351 1349 1349 1348 1347 1346 1344 1343 1343 1342 1340 1338 1336 1334 1333 1331 1329 1328 1327 1327 1326 1325 1324 1323 1323 1322 1322 1322 1322 1322 1321 1321 1320 1320 1320 1320 1321 1322 1323 1323 1324 1325 1327 1328 1329 1331 1332 1333 1334 1336 1337 1339 1340 1342 1343 1344 1346 1347 1348 1350 1351 1353 1354 1356 1358 1359 1361 1362 1364 1366 1368 1371 1374 1377 1380 1382 1384 1387
1360 1358 1357 1355 1354 1353 1352 1351 1349 1348 1347 1347 1346 1345 1343 1342 1341 1340 1339 1337 1335 1334 1333 1330 1328 1326 1325 1325 1325 1324 1323 1323 1322 1321 1320 1320 1320 1320 1319 1318 1318 1318 1318 1318 1318 1319 1320 1321 1322 1323 1324 1325 1327 1328 1330 1331 1333 1334 1335 1337 1338 1340 1341 1343 1344 1345 1347 1348 1349 1351 1353 1355 1356 1358 1359 1361 1362 1364 1367 1369 1372 1375 1378 1380 1382 1385
1358 1357 1355 1353 1352 1351 1350 1349 1348 1347 1346 1345 1344 1343 1342 1341 1340 1339 1338 1336 1334 1333 1331 1329 1327 1324 1323 1323 1323 1323 1323 1322 1321 1319 1318 1318 1318 1318 1318 1316 1315 1315 1316 1316 1316 1317 1318 1319 1319 1320 1322 1323 1325 1326 1328 1329 1330 1332 1333 1334 1336 1337 1339 1340 1342 1343 1345 1346 1348 1349 1351 1353 1354 1356 1357 1359 1361 1363 1365 1368 1371 1373 1375 1377 1380 1383
1356 1355 1353 1352 1350 1349 1348 1348 1347 1346 1344 1343 1343 1342 1341 1340 1339 1338 1337 1335 1333 1332 1330 1328 1326 1323 1321 1322 1322 1323 1322 1321 1319 1318 1316 1315 1315 1316 1316 1314 1313 1313 1313 1313 1314 1314 1316 1317 1317 1318 1319 1321 1323 1324 1326 1327 1328 1329 1331 1332 1333 1335 1336 1338 1339 1341 1343 1344 1345 1347 1348 1350 1352 1353 1355 1357 1359 1361 1364 1366 1368 1371 1373 1375 1377 1381
1354 1353 1352 1350 1348 1347 1347 1346 1345 1344 1343 1342 1341 1341 1340 1338 1338 1336 1335 1334 1333 1331 1330 1328 1327 1323 1320 1319 1320 1321 1321 1320 1318 1316 1314 1313 1313 1313 1314 1313 1311 1310 1311 1311 1312 1313 1313 1314 1315 1316 1317 1318 1320 1322 1323 1325 1326 1327 1328 1330 1331 1333 1334 1335 1337 1339 1340 1342 1343 1344 1346 1348 1349 1351 1353 1355 1358 1360 1362 1364 1366 1368 1371 1373 1375 1378
1352 1351 1350 1348 1347 1346 1345 1344 1343 1342 1341 1340 1339 1338 1338 1337 1336 1335 1334 1333 1332 1331 1329 1328 1327 1324 1322 1319 1318 1319 1320 1319 1317 1315 1313 1311 1310 1311 1312 1311 1309 1308 1308 1309 1310 1311 1311 1312 1312 1313 1315 1316 1318 1319 1321 1322 1323 1325 1326 1328 1329 1330 1332 1333 1335 1337 1338 1340 1341 1343 1344 1346 1348 1349 1352 1354 1356 1358 1361 1363 1365 1367 1369 1371 1373 1377
1350 1349 1348 1347 1345 1344 1343 1342 1341 1340 1339 1339 1338 1337 1336 1335 1334 1333 1333 1331 1330 1329 1328 1327 1325 1323 1322 1319 1318 1318 1319 1318 1317 1314 1312 1309 1308 1308 1309 1308 1308 1307 1306 1307 1308 1308 1309 1309 1310 1311 1313 1314 1315 1317 1318 1319 1321 1323 1324 1325 1327 1328 1330 1331 1333 1335 1336 1338 1339 1341 1343 1344 1345 1347 1350 1352 1354 1357 1359 1361 1363 1365 1368 1370 1372 1375
1348 1347 1346 1345 1343 1342 1340 1339 1339 1338 1338 1337 1336 1335 1334 1333 1332 1331 1330 1330 1329 1328 1327 1325 1324 1322 1320 1318 1317 1317 1318 1317 1316 1314 1311 1308 1307 1306 1307 1307 1306 1305 1304 1305 1306 1307 1307 1307 1308 1309 1310 1312 1313 1314 1315 1317 1318 1320 1322 1323 1324 1326 1328 1329 1331 1333 1334 1336 1338 1339 1341 1343 1344 1345 1348 1350 1353 1355 1358 1360 1362 1364 1366 1368 1370 1373
1345 1344 1343 1343 1342 1340 1338 1337 1337 1337 1336 1336 1335 1334 1332 1331 1330 1329 1328 1328 1327 1326 1325 1324 1322 1320 1319 1318 1316 1315 1316 1316 1315 1313 1310 1308 1305 1305 1305 1305 1304 1303 1303 1303 1304 1305 1305 1305 1306 1307 1308 1309 1310 1312 1313 1314 1316 1318 1319 1321 1322 1324 1325 1327 1328 1330 1332 1334 1336 1337 1339 1341 1342 1344 1346 1348 1351 1353 1356 1358 1360 1362 1364 1366 1368 1370
1343 1342 1341 1341 1340 1338 1336 1335 1335 1335 1335 1334 1333 1332 1330 1329 1328 1327 1326 1326 1325 1324 1323 1322 1320 1319 1318 1316 1315 1314 1314 1315 1314 1313 1310 1307 1304 1303 1304 1304 1303 1302 1301 1301 1302 1303 1303 1303 1303 1304 1305 1307 1308 1309 1311 1312 1314 1315 1317 1318 1320 1322 1323 1325 1326 1328 1330 1332 1333 1335 1337 1338 1340 1342 1344 1347 1349 1352 1354 1356 1358 1360 1363 1364 1366 1368
1342 1340 1339 1338 1338 1336 1335 1334 1333 1333 1332 1332 1330 1328 1328 1327 1326 1325 1324 1324 1323 1322 1321 1320 1318 1317 1316 1314 1313 1313 1313 1313 1313 1312 1310 1308 1304 1302 1303 1303 1302 1301 1299 1300 1300 1301 1301 1301 1302 1302 1303 1304 1306 1307 1308 1310 1312 1313 1315 1316 1318 1319 1321 1323 1324 1326 1328 1330 1332 1333 1335 1337 1338 1340 1342 1345 1347 1350 1352 1354 1356 1358 1361 1363 1364 1367
1341 1340 1338 1337 1336 1334 1333 1331 1330 1330 1329 1328 1327 1326 1325 1325 1324 1323 1323 1322 1321 1320 1319 1318 1317 1315 1313 1313 1312 1312 1311 1312 1312 1311 1310 1307 1303 1301 1301 1301 1301 1299 1298 1298 1299 1299 1299 1299 1299 1300 1301 1302 1304 1305 1306 1308 1309 1311 1312 1314 1315 1317 1319 1320 1322 1324 1326 1328 1329 1331 1333 1335 1337 1338 1340 1343 1345 1348 1350 1352 1354 1357 1359 1361 1363 1365
1338 1336 1335 1333 1333 1332 1331 1329 1329 1329 1329 1328 1327 1326 1325 1324 1323 1322 1321 1321 1320 1319 1318 1317 1316 1314 1312 1312 1311 1310 1310 1310 1310 1309 1308 1306 1303 1300 1300 1300 1300 1298 1297 1297 1297 1297 1297 1297 1298 1298 1299 1300 1302 1303 1304 1305 1307 1308 1310 1312 1313 1315 1316 1318 1320 1322 1323 1325 1327 1329 1331 1333 1335 1337 1339 1341 1343 1345 1348 1350 1353 1355 1357 1359 1361 1363
1335 1334 1333 1332 1331 1330 1330 1329 1329 1328 1327 1326 1324 1323 1323 1323 1322 1321 1320 1320 1319 1318 1318 1316 1314 1312 1311 1310 1309 1308 1308 1308 1308 1308 1307 1305 1302 1299 1298 1299 1299 1298 1296 1295 1295 1295 1295 1295 1296 1297 1298 1298 1299 1301 1302 1303 1305 1306 1308 1309 1311 1312 1314 1315 1317 1319 1321 1323 1325 1327 1328 1330 1332 1334 1337 1339 1341 1343 1345 1348 1351 1353 1356 1358 1359 1361
1333 1332 1330 1329 1328 1327 1326 1325 1323 1323 1323 1322 1322 1322 1321 1321 1320 1319 1318 1318 1317 1317 1316 1315 1313 1311 1309 1309 1308 1307 1306 1306 1306 1306 1306 1304 1302 1299 1297 1298 1298 1297 1295 1294 1293 1293 1293 1293 1294 1295 1296 1296 1297 1298 1299 1301 1302 1304 1305 1307 1308 1310 1311 1313 1315 1317 1318 1320 1322 1324 1326 1328 1330 1332 1334 1336 1338 1341 1343 1346 1348 1351 1354 1356 1358 1360
1330 1328 1327 1326 1324 1323 1323 1322 1321 1320 1320 1319 1319 1319 1319 1319 1318 1317 1316 1315 1315 1315 1314 1313 1312 1310 1308 1307 1305 1304 1304 1304 1303 1304 1304 1303 1301 1298 1297 1297 1297 1296 1295 1293 1292 1291 1292 1292 1292 1293 1293 1294 1295 1296 1297 1298 1300 1301 1303 1304 1306 1308 1309 1311 1312 1314 1316 1318 1320 1322 1323 1325 1327 1329 1331 1334 1336 1338 1341 1343 1347 1350 1352 1354 1356 1358
1327 1326 1324 1323 1322 1321 1320 1319 1318 1317 1317 1316 1316 1317 1317 1316 1316 1315 1314 1313 1313 1313 1312 1311 1310 1309 1307 1306 1304 1302 1301 1301 1301 1302 1303 1302 1299 1297 1296 1296 1296 1295 1294 1293 1290 1289 1289 1290 1290 1291 1292 1292 1293 1294 1295 1296 1298 1299 1300 1302 1303 1305 1306 1308 1310 1312 1313 1315 1318 1319 1321 1323 1325 1327 1329 1331 1334 1336 1339 1342 1345 1348 1350 1352 1354 1356
1325 1324 1323 1321 1320 1319 1318 1317 1316 1315 1314 1314 1314 1314 1314 1313 1313 1312 1311 1311 1311 1311 1310 1309 1308 1308 1307 1305 1303 1301 1299 1299 1300 1302 1302 1301 1299 1297 1296 1296 1295 1295 1295 1293 1291 1288 1286 1287 1288 1289 1289 1290 1291 1292 1293 1294 1295 1297 1298 1299 1301 1302 1304 1305 1307 1309 1311 1313 1315 1317 1319 1321 1323 1325 1327 1329 1332 1334 1337 1340 1343 1346 1348 1350 1352 1354
1323 1322 1321 1319 1318 1318 1316 1315 1314 1313 1313 1312 1312 1311 1311 1310 1310 1309 1309 1309 1309 1308 1308 1307 1307 1306 1306 1305 1303 1300 1297 1298 1299 1301 1300 1299 1298 1296 1295 1295 1294 1294 1295 1294 1293 1290 1286 1284 1285 1287 1287 1288 1288 1289 1290 1292 1293 1295 1296 1297 1298 1300 1301 1303 1305 1307 1308 1310 1312 1314 1316 1318 1320 1323 1325 1328 1330 1333 1335 1338 1341 1343 1345 1348 1349 1352
1322 1321 1319 1318 1317 1316 1315 1314 1313 1312 1311 1310 1310 1309 1309 1308 1308 1308 1307 1307 1307 1307 1306 1305 1305 1304 1304 1303 1302 1299 1295 1296 1298 1299 1299 1298 1296 1294 1294 1294 1293 1293 1293 1293 1293 1292 1289 1285 1283 1284 1285 1286 1286 1287 1288 1290 1291 1293 1294 1295 1296 1297 1299 1301 1303 1304 1306 1308 1309 1311 1313 1315 1318 1321 1323 1326 1328 1331 1333 1336 1338 1341 1343 1345 1347 1349
1321 1319 1318 1317 1315 1314 1313 1312 1311 1310 1309 1309 1308 1308 1307 1307 1306 1306 1305 1305 1305 1304 1304 1303 1303 1302 1301 1300 1299 1296 1294 1294 1295 1297 1298 1297 1295 1293 1293 1292 1292 1291 1291 1291 1291 1291 1289 1286 1283 1282 1282 1283 1284 1285 1287 1288 1289 1291 1292 1293 1294 1295 1297 1298 1300 1302 1303 1305 1307 1308 1310 1313 1315 1318 1321 1323 1326 1328 1330 1333 1336 1338 1341 1343 1345 1347
1320 1318 1317 1316 1314 1313 1312 1311 1310 1309 1308 1307 1307 1306 1305 1305 1304 1304 1304 1303 1303 1303 1302 1301 1301 1300 1299 1298 1296 1293 1292 1292 1294 1296 1296 1295 1294 1292 1291 1291 1290 1290 1290 1289 1289 1288 1287 1285 1284 1282 1281 1281 1282 1283 1285 1286 1287 1288 1289 1290 1292 1293 1294 1296 1298 1299 1301 1303 1304 1306 1308 1310 1313 1315 1318 1321 1323 1325 1328 1330 1333 1336 1338 1340 1342 1344
1319 1318 1316 1315 1313 1312 1311 1310 1309 1308 1307 1306 1305 1305 1304 1303 1303 1303 1302 1302 1301 1301 1300 1299 1299 1298 1297 1296 1294 1292 1290 1291 1293 1294 1294 1294 1293 1291 1290 1289 1289 1289 1289 1288 1287 1287 1285 1284 1283 1282 1280 1279 1279 1281 1283 1284 1285 1286 1287 1288 1289 1291 1293 1294 1296 1297 1299 1301 1302 1304 1305 1307 1310 1312 1315 1317 1320 1322 1325 1328 1331 1333 1336 1338 1340 1342
1318 1317 1315 1314 1313 1311 1310 1309 1308 1307 1306 1305 1304 1304 1303 1302 1302 1301 1300 1300 1299 1299 1298 1298 1297 1296 1295 1294 1293 1291 1289 1290 1292 1293 1293 1292 1291 1290 1289 1288 1287 1288 1287 1287 1286 1285 1284 1283 1281 1281 1280 1278 1277 1278 1280 1281 1283 1284 1285 1286 1288 1289 1291 1292 1293 1295 1297 1298 1300 1301 1303 1305 1308 1310 1312 1314 1317 1320 1323 1325 1328 1331 1333 1336 1338 1340
1318 1316 1315 1313 1312 1311 1309 1308 1307 1306 1305 1304 1303 1303 1302 1301 1300 1300 1299 1298 1298 1297 1297 1296 1295 1294 1293 1292 1291 1290 1289 1289 1290 1290 1290 1290 1290 1289 1288 1286 1285 1286 1286 1285 1284 1284 1283 1282 1280 1279 1278 1277 1276 1276 1277 1279 1281 1282 1283 1284 1286 1288 1288 1290 1291 1293 1294 1296 1297 1299 1301 1303 1306 1308 1309 1312 1315 1318 1321 1323 1327 1329 1332 1334 1337 1339
1318 1316 1314 1313 1311 1310 1309 1307 1306 1305 1304 1303 1302 1301 1301 1300 1299 1298 1298 1297 1296 1296 1295 1294 1293 1293 1292 1291 1290 1289 1288 1288 1288 1288 1288 1288 1288 1287 1286 1284 1283 1284 1284 1284 1283 1283 1282 1281 1279 1277 1276 1275 1275 1276 1276 1277 1279 1280 1280 1282 1283 1285 1286 1288 1289 1290 1292 1293 1295 1297 1299 1301 1303 1305 1307 1310 1313 1316 1319 1322 1325 1328 1331 1333 1336 1338
1317 1316 1314 1313 1311 1310 1308 1307 1306 1304 1303 1302 1301 1300 1299 1298 1298 1297 1296 1296 1295 1294 1293 1293 1292 1291 1290 1289 1289 1288 1287 1286 1286 1286 1286 1286 1286 1285 1284 1283 1282 1282 1282 1282 1282 1282 1281 1280 1278 1277 1275 1274 1274 1274 1275 1276 1277 1277 1278 1279 1281 1282 1283 1285 1286 1288 1289 1291 1293 1295 1297 1300 1302 1303 1305 1307 1310 1313 1315 1318 1321 1324 1328 1332 1335 1337
1317 1315 1314 1312 1311 1309 1308 1307 1305 1304 1303 1302 1300 1299 1298 1298 1297 1296 1295 1294 1294 1293 1292 1291 1290 1289 1288 1288 1287 1286 1286 1285 1285 1284 1284 1284 1284 1283 1283 1281 1280 1280 1280 1280 1280 1280 1279 1278 1277 1276 1275 1274 1273 1272 1273 1274 1275 1276 1277 1278 1279 1280 1281 1283 1284 1285 1287 1288 1290 1293 1295 1298 1300 1301 1302 1304 1306 1308 1311 1314 1318 1322 1325 1328 1331 1333
1317 1315 1313 1312 1310 1309 1308 1306 1305 1303 1302 1301 1300 1298 1298 1296 1295 1294 1294 1293 1293 1292 1291 1290 1289 1288 1287 1286 1285 1285 1284 1283 1283 1283 1282 1282 1282 1281 1280 1279 1279 1278 1278 1278 1277 1277 1277 1276 1275 1274 1273 1272 1272 1271 1271 1271 1272 1274 1276 1276 1276 1276 1278 1281 1282 1283 1284 1286 1288 1291 1293 1296 1298 1299 1300 1302 1304 1306 1308 1312 1316 1320 1323 1325 1327 1329
1317 1315 1313 1311 1309 1308 1307 1305 1304 1303 1302 1300 1299 1298 1297 1296 1295 1294 1293 1292 1291 1291 1290 1289 1288 1287 1286 1285 1284 1283 1283 1282 1281 1281 1280 1279 1279 1279 1278 1277 1277 1277 1277 1276 1275 1274 1274 1274 1273 1272 1271 1271 1271 1270 1268 1269 1270 1272 1273 1273 1273 1274 1275 1278 1280 1281 1283 1284 1287 1289 1292 1294 1295 1297 1298 1300 1303 1305 1309 1312 1315 1318 1321 1323 1324 1326
1316 1314 1313 1311 1309 1308 1306 1305 1303 1302 1301 1300 1298 1297 1296 1295 1294 1293 1292 1291 1290 1289 1289 1288 1287 1286 1284 1283 1283 1282 1281 1280 1279 1278 1278 1277 1277 1276 1276 1275 1275 1275 1275 1274 1273 1272 1271 1271 1270 1270 1269 1269 1269 1268 1267 1267 1268 1269 1270 1271 1273 1274 1275 1275 1277 1279 1281 1283 1285 1288 1290 1292 1293 1294 1296 1299 1302 1305 1308 1311 1314 1316 1318 1319 1321 1323
1316 1314 1312 1310 1309 1307 1306 1304 1303 1302 1300 1299 1298 1297 1296 1294 1293 1293 1291 1290 1289 1288 1288 1287 1286 1285 1283 1282 1281 1280 1279 1278 1277 1277 1276 1275 1275 1274 1274 1273 1273 1272 1272 1272 1270 1269 1268 1268 1267 1267 1267 1267 1267 1266 1265 1264 1265 1266 1267 1269 1271 1271 1271 1272 1275 1277 1279 1280 1283 1285 1288 1290 1292 1293 1296 1298 1301 1303 1306 1308 1311 1314 1316 1318 1319 1321
1315 1313 1312 1310 1308 1307 1305 1304 1302 1301 1300 1298 1297 1296 1295 1294 1293 1292 1291 1290 1288 1288 1287 1286 1285 1283 1282 1281 1279 1278 1277 1276 1275 1275 1274 1274 1273 1273 1272 1271 1271 1270 1269 1268 1267 1266 1265 1264 1264 1264 1265 1266 1265 1264 1263 1262 1262 1263 1265 1267 1268 1267 1267 1269 1273 1276 1276 1277 1280 1282 1285 1288 1290 1293 1295 1297 1298 1301 1303 1305 1308 1311 1313 1315 1317 1319
1315 1313 1311 1309 1308 1306 1305 1303 1302 1301 1299 1298 1297 1296 1294 1293 1292 1291 1290 1289 1288 1287 1286 1285 1284 1283 1281 1279 1278 1277 1275 1274 1273 1273 1272 1272 1271 1271 1270 1269 1268 1267 1266 1265 1264 1263 1263 1262 1262 1262 1263 1263 1262 1261 1260 1260 1260 1261 1262 1264 1265 1265 1266 1269 1271 1273 1273 1275 1277 1280 1283 1286 1288 1289 1291 1292 1294 1297 1299 1302 1304 1307 1309 1311 1313 1316
1315 1313 1311 1309 1308 1306 1305 1303 1302 1300 1299 1298 1296 1295 1294 1293 1292 1290 1289 1288 1287 1286 1285 1284 1283 1282 1280 1278 1277 1275 1274 1272 1272 1271 1270 1270 1269 1268 1267 1267 1266 1265 1264 1263 1262 1262 1262 1261 1261 1261 1261 1261 1259 1258 1257 1257 1258 1259 1260 1261 1262 1263 1264 1266 1268 1269 1270 1273 1276 1279 1281 1284 1285 1285 1286 1289 1292 1294 1297 1299 1302 1304 1306 1308 1311 1314
1316 1313 1311 1309 1308 1306 1304 1303 1301 1300 1298 1297 1296 1294 1293 1292 1291 1290 1289 1288 1286 1285 1284 1283 1281 1280 1279 1277 1276 1275 1273 1272 1271 1269 1268 1267 1267 1266 1265 1264 1264 1263 1262 1262 1261 1261 1260 1260 1260 1259 1259 1258 1257 1255 1254 1254 1256 1257 1257 1258 1259 1260 1261 1263 1265 1268 1270 1273 1275 1277 1280 1281 1281 1282 1284 1287 1290 1293 1294 1297 1300 1303 1305 1307 1310 1313
1316 1314 1312 1310 1308 1306 1304 1303 1301 1300 1298 1297 1295 1294 1293 1292 1291 1289 1288 1287 1285 1284 1283 1282 1280 1279 1277 1276 1275 1274 1273 1271 1270 1268 1267 1266 1265 1264 1263 1262 1261 1260 1260 1260 1259 1259 1258 1258 1257 1257 1256 1255 1254 1252 1252 1252 1253 1254 1255 1255 1256 1257 1259 1261 1264 1266 1268 1271 1273 1275 1277 1278 1278 1279 1282 1285 1287 1289 1291 1294 1298 1301 1303 1306 1308 1311
1317 1314 1312 1310 1308 1306 1305 1303 1302 1300 1298 1297 1295 1294 1292 1291 1290 1289 1288 1286 1285 1284 1283 1281 1280 1278 1277 1275 1274 1273 1272 1270 1268 1267 1266 1264 1263 1262 1261 1260 1259 1258 1257 1257 1257 1257 1256 1256 1255 1255 1254 1253 1252 1251 1250 1250 1250 1252 1252 1252 1253 1255 1258 1260 1262 1264 1266 1268 1270 1273 1276 1277 1278 1279 1282 1283 1285 1287 1290 1293 1296 1299 1302 1305 1308 1310
1318 1315 1313 1310 1308 1307 1305 1303 1302 1300 1298 1297 1295 1294 1292 1291 1289 1288 1287 1286 1284 1283 1282 1281 1279 1278 1277 1275 1274 1272 1271 1269 1267 1266 1265 1263 1262 1261 1260 1258 1257 1256 1255 1255 1255 1254 1254 1254 1254 1253 1252 1252 1251 1250 1249 1249 1249 1249 1250 1251 1252 1254 1256 1258 1260 1261 1263 1266 1268 1270 1272 1273 1275 1277 1279 1281 1284 1287 1290 1292 1294 1297 1300 1304 1307 1310